Time,TemperatureF,DewpointF,PressureIn,WindDirection,WindDirectionDegrees,WindSpeedMPH,WindSpeedGustMPH,Humidity,HourlyPrecipIn,Conditions,Clouds,dailyrainin,SoftwareType,DateUTC
2013-07-16 00:01:00,81.0,72.7,30.10,SE,135,0.0,0.0,76,0.00,CLR,,0.00,WeatherDisplay:10.37,2013-07-16 04:01:00,
2013-07-16 00:06:00,80.8,72.9,30.10,SE,135,0.0,0.0,77,0.00,CLR,,0.00,WeatherDisplay:10.37,2013-07-16 04:06:00,
2013-07-16 00:11:00,80.6,72.7,30.10,SE,135,0.0,0.0,77,0.00,CLR,,0.00,WeatherDisplay:10.37,2013-07-16 04:11:00,
2013-07-16 00:16:00,80.4,72.9,30.10,SE,135,0.0,0.0,78,0.00,CLR,,0.00,WeatherDisplay:10.37,2013-07-16 04:16:00,
2013-07-16 00:21:00,80.2,72.8,30.10,SE,135,0.0,0.0,78,0.00,CLR,,0.00,WeatherDisplay:10.37,2013-07-16 04:21:00,
2013-07-16 00:26:00,80.2,72.8,30.10,SE,135,0.0,0.0,78,0.00,CLR,,0.00,WeatherDisplay:10.37,2013-07-16 04:26:00,
2013-07-16 00:31:00,80.2,72.8,30.10,SE,135,0.0,0.0,78,0.00,CLR,,0.00,WeatherDisplay:10.37,2013-07-16 04:31:00,
2013-07-16 00:36:00,80.1,72.6,30.10,SE,135,0.0,0.0,78,0.00,CLR,,0.00,WeatherDisplay:10.37,2013-07-16 04:36:00,
2013-07-16 00:41:00,79.9,72.4,30.10,SE,135,0.0,0.0,78,0.00,CLR,,0.00,WeatherDisplay:10.37,2013-07-16 04:41:00,
2013-07-16 00:46:00,79.9,72.8,30.10,SE,135,0.0,0.0,79,0.00,CLR,,0.00,WeatherDisplay:10.37,2013-07-16 04:46:00,
2013-07-16 00:51:00,79.5,72.4,30.10,SE,135,0.0,0.0,79,0.00,CLR,,0.00,WeatherDisplay:10.37,2013-07-16 04:51:00,
2013-07-16 00:56:00,79.3,72.6,30.10,SE,135,0.0,0.0,80,0.00,CLR,,0.00,WeatherDisplay:10.37,2013-07-16 04:56:00,
2013-07-16 01:01:00,79.2,72.5,30.10,SE,135,0.0,0.0,80,0.00,CLR,,0.00,WeatherDisplay:10.37,2013-07-16 05:01:00,
2013-07-16 01:06:00,79.0,72.3,30.10,SE,135,0.0,0.0,80,0.00,CLR,,0.00,WeatherDisplay:10.37,2013-07-16 05:06:00,
2013-07-16 01:11:00,78.8,72.5,30.10,SE,135,0.0,0.0,81,0.00,CLR,,0.00,WeatherDisplay:10.37,2013-07-16 05:11:00,
2013-07-16 01:16:00,78.8,72.5,30.10,SE,135,0.0,0.0,81,0.00,CLR,,0.00,WeatherDisplay:10.37,2013-07-16 05:16:00,
2013-07-16 01:21:00,78.6,72.3,30.10,SE,135,0.0,0.0,81,0.00,CLR,,0.00,WeatherDisplay:10.37,2013-07-16 05:21:00,
2013-07-16 01:26:00,78.4,72.1,30.10,SE,135,0.0,0.0,81,0.00,CLR,,0.00,WeatherDisplay:10.37,2013-07-16 05:26:00,
2013-07-16 01:31:00,78.3,71.9,30.10,SE,135,0.0,0.0,81,0.00,CLR,,0.00,WeatherDisplay:10.37,2013-07-16 05:31:00,
2013-07-16 01:36:00,78.3,71.9,30.10,SE,135,0.0,0.0,81,0.00,CLR,,0.00,WeatherDisplay:10.37,2013-07-16 05:36:00,
2013-07-16 01:41:00,78.1,71.8,30.10,SE,135,0.0,0.0,81,0.00,CLR,,0.00,WeatherDisplay:10.37,2013-07-16 05:41:00,
2013-07-16 01:46:00,78.1,71.8,30.10,SE,135,0.0,0.0,81,0.00,CLR,,0.00,WeatherDisplay:10.37,2013-07-16 05:46:00,
2013-07-16 01:51:00,78.1,71.8,30.10,SE,135,0.0,0.0,81,0.00,CLR,,0.00,WeatherDisplay:10.37,2013-07-16 05:51:00,
2013-07-16 01:56:00,77.9,71.6,30.10,SE,135,0.0,0.0,81,0.00,CLR,,0.00,WeatherDisplay:10.37,2013-07-16 05:56:00,
2013-07-16 02:01:00,77.9,71.6,30.10,SE,135,0.0,0.0,81,0.00,CLR,,0.00,WeatherDisplay:10.37,2013-07-16 06:01:00,
2013-07-16 02:06:00,77.7,71.4,30.10,SE,135,0.0,0.0,81,0.00,CLR,,0.00,WeatherDisplay:10.37,2013-07-16 06:06:00,
2013-07-16 02:11:00,77.7,71.4,30.10,SE,135,0.0,0.0,81,0.00,CLR,,0.00,WeatherDisplay:10.37,2013-07-16 06:11:00,
2013-07-16 02:16:00,77.5,71.6,30.10,SE,135,0.0,0.0,82,0.00,CLR,,0.00,WeatherDisplay:10.37,2013-07-16 06:16:00,
2013-07-16 02:21:00,77.5,71.6,30.10,SE,135,0.0,0.0,82,0.00,CLR,,0.00,WeatherDisplay:10.37,2013-07-16 06:21:00,
2013-07-16 02:26:00,77.4,71.4,30.10,SE,135,0.0,0.0,82,0.00,CLR,,0.00,WeatherDisplay:10.37,2013-07-16 06:26:00,
2013-07-16 02:31:00,77.4,71.4,30.11,SE,135,0.0,0.0,82,0.00,CLR,,0.00,WeatherDisplay:10.37,2013-07-16 06:31:00,
2013-07-16 02:36:00,77.2,71.3,30.11,SE,135,0.0,0.0,82,0.00,CLR,,0.00,WeatherDisplay:10.37,2013-07-16 06:36:00,
2013-07-16 02:41:00,77.2,71.3,30.10,SE,135,0.0,0.0,82,0.00,CLR,,0.00,WeatherDisplay:10.37,2013-07-16 06:41:00,
2013-07-16 02:46:00,77.0,71.1,30.10,SE,135,0.0,0.0,82,0.00,CLR,,0.00,WeatherDisplay:10.37,2013-07-16 06:46:00,
2013-07-16 02:51:00,77.0,71.1,30.10,SE,135,0.0,0.0,82,0.00,CLR,,0.00,WeatherDisplay:10.37,2013-07-16 06:51:00,
2013-07-16 02:56:00,76.8,71.3,30.10,SE,135,0.0,0.0,83,0.00,CLR,,0.00,WeatherDisplay:10.37,2013-07-16 06:56:00,
2013-07-16 03:01:00,76.6,71.1,30.10,SE,135,0.0,0.0,83,0.00,CLR,,0.00,WeatherDisplay:10.37,2013-07-16 07:01:00,
2013-07-16 03:06:00,76.6,71.1,30.10,SE,135,0.0,0.0,83,0.00,CLR,,0.00,WeatherDisplay:10.37,2013-07-16 07:06:00,
2013-07-16 03:11:00,76.5,70.9,30.10,SE,135,0.0,0.0,83,0.00,CLR,,0.00,WeatherDisplay:10.37,2013-07-16 07:11:00,
2013-07-16 03:16:00,76.3,70.7,30.10,SE,135,0.0,0.0,83,0.00,CLR,,0.00,WeatherDisplay:10.37,2013-07-16 07:16:00,
2013-07-16 03:21:00,76.3,71.1,30.10,SE,135,0.0,0.0,84,0.00,CLR,,0.00,WeatherDisplay:10.37,2013-07-16 07:21:00,
2013-07-16 03:26:00,76.3,71.1,30.10,SE,135,0.0,0.0,84,0.00,CLR,,0.00,WeatherDisplay:10.37,2013-07-16 07:26:00,
2013-07-16 03:31:00,76.1,70.9,30.10,SE,135,0.0,0.0,84,0.00,CLR,,0.00,WeatherDisplay:10.37,2013-07-16 07:31:00,
2013-07-16 03:36:00,75.9,70.7,30.10,SE,135,0.0,0.0,84,0.00,CLR,,0.00,WeatherDisplay:10.37,2013-07-16 07:36:00,
2013-07-16 03:41:00,75.9,70.7,30.10,SE,135,0.0,0.0,84,0.00,CLR,,0.00,WeatherDisplay:10.37,2013-07-16 07:41:00,
2013-07-16 03:46:00,75.7,70.6,30.10,SE,135,0.0,0.0,84,0.00,CLR,,0.00,WeatherDisplay:10.37,2013-07-16 07:46:00,
2013-07-16 03:51:00,75.6,70.4,30.10,SE,135,0.0,0.0,84,0.00,CLR,,0.00,WeatherDisplay:10.37,2013-07-16 07:51:00,
2013-07-16 03:56:00,75.4,70.2,30.10,SE,135,0.0,0.0,84,0.00,CLR,,0.00,WeatherDisplay:10.37,2013-07-16 07:56:00,
2013-07-16 04:01:00,75.2,70.4,30.10,SE,135,0.0,0.0,85,0.00,CLR,,0.00,WeatherDisplay:10.37,2013-07-16 08:01:00,
2013-07-16 04:06:00,75.2,70.4,30.10,SE,135,0.0,0.0,85,0.00,CLR,,0.00,WeatherDisplay:10.37,2013-07-16 08:06:00,
2013-07-16 04:11:00,75.0,70.2,30.10,SE,135,0.0,0.0,85,0.00,CLR,,0.00,WeatherDisplay:10.37,2013-07-16 08:11:00,
2013-07-16 04:16:00,74.8,70.0,30.10,SE,135,0.0,0.0,85,0.00,CLR,,0.00,WeatherDisplay:10.37,2013-07-16 08:16:00,
2013-07-16 04:21:00,74.8,70.0,30.10,SE,135,0.0,0.0,85,0.00,CLR,,0.00,WeatherDisplay:10.37,2013-07-16 08:21:00,
2013-07-16 04:26:00,74.7,69.8,30.10,SE,135,0.0,0.0,85,0.00,CLR,,0.00,WeatherDisplay:10.37,2013-07-16 08:26:00,
2013-07-16 04:31:00,74.5,69.7,30.10,SE,135,0.0,0.0,85,0.00,CLR,,0.00,WeatherDisplay:10.37,2013-07-16 08:31:00,
2013-07-16 04:36:00,74.5,69.7,30.10,SE,135,0.0,0.0,85,0.00,CLR,,0.00,WeatherDisplay:10.37,2013-07-16 08:36:00,
2013-07-16 04:41:00,74.3,69.5,30.10,SE,135,0.0,0.0,85,0.00,CLR,,0.00,WeatherDisplay:10.37,2013-07-16 08:41:00,
2013-07-16 04:46:00,74.1,69.7,30.11,SE,135,0.0,0.0,86,0.00,CLR,,0.00,WeatherDisplay:10.37,2013-07-16 08:46:00,
2013-07-16 04:51:00,74.1,69.7,30.10,SE,135,0.0,0.0,86,0.00,CLR,,0.00,WeatherDisplay:10.37,2013-07-16 08:51:00,
2013-07-16 04:56:00,73.9,69.5,30.11,SE,135,0.0,0.0,86,0.00,CLR,,0.00,WeatherDisplay:10.37,2013-07-16 08:56:00,
2013-07-16 05:01:00,73.9,69.5,30.11,SE,135,0.0,0.0,86,0.00,CLR,,0.00,WeatherDisplay:10.37,2013-07-16 09:01:00,
2013-07-16 05:06:00,73.8,69.3,30.11,SE,135,0.0,0.0,86,0.00,CLR,,0.00,WeatherDisplay:10.37,2013-07-16 09:06:00,
2013-07-16 05:11:00,73.8,69.3,30.11,SE,135,0.0,0.0,86,0.00,CLR,,0.00,WeatherDisplay:10.37,2013-07-16 09:11:00,
2013-07-16 05:16:00,73.6,69.1,30.11,SE,135,0.0,0.0,86,0.00,CLR,,0.00,WeatherDisplay:10.37,2013-07-16 09:16:00,
2013-07-16 05:21:00,73.6,69.1,30.11,SE,135,0.0,0.0,86,0.00,CLR,,0.00,WeatherDisplay:10.37,2013-07-16 09:21:00,
2013-07-16 05:26:00,73.4,69.0,30.11,SE,135,0.0,0.0,86,0.00,CLR,,0.00,WeatherDisplay:10.37,2013-07-16 09:26:00,
2013-07-16 05:31:00,73.4,69.0,30.11,SE,135,0.0,0.0,86,0.00,CLR,,0.00,WeatherDisplay:10.37,2013-07-16 09:31:00,
2013-07-16 05:36:00,73.2,68.8,30.12,SE,135,0.0,0.0,86,0.00,CLR,,0.00,WeatherDisplay:10.37,2013-07-16 09:36:00,
2013-07-16 05:41:00,73.0,68.6,30.12,SE,135,0.0,0.0,86,0.00,CLR,,0.00,WeatherDisplay:10.37,2013-07-16 09:41:00,
2013-07-16 05:46:00,73.0,68.9,30.12,SE,135,0.0,0.0,87,0.00,CLR,,0.00,WeatherDisplay:10.37,2013-07-16 09:46:00,
2013-07-16 05:51:00,73.0,68.9,30.12,SE,135,0.0,0.0,87,0.00,CLR,,0.00,WeatherDisplay:10.37,2013-07-16 09:51:00,
2013-07-16 05:56:00,73.0,68.9,30.12,SE,135,0.0,0.0,87,0.00,CLR,,0.00,WeatherDisplay:10.37,2013-07-16 09:56:00,
2013-07-16 06:01:00,73.0,68.9,30.13,SE,135,0.0,0.0,87,0.00,CLR,,0.00,WeatherDisplay:10.37,2013-07-16 10:01:00,
2013-07-16 06:06:00,73.0,68.9,30.13,SE,135,0.0,0.0,87,0.00,CLR,,0.00,WeatherDisplay:10.37,2013-07-16 10:06:00,
2013-07-16 06:12:00,72.9,68.4,30.13,SE,135,0.0,0.0,86,0.00,CLR,,0.00,WeatherDisplay:10.37,2013-07-16 10:12:00,
2013-07-16 06:17:00,72.9,68.4,30.13,SE,135,0.0,0.0,86,0.00,CLR,,0.00,WeatherDisplay:10.37,2013-07-16 10:17:00,
2013-07-16 06:22:00,72.9,68.4,30.13,SE,135,0.0,0.0,86,0.00,CLR,,0.00,WeatherDisplay:10.37,2013-07-16 10:22:00,
2013-07-16 06:27:00,72.9,68.4,30.13,SE,135,0.0,0.0,86,0.00,CLR,,0.00,WeatherDisplay:10.37,2013-07-16 10:27:00,
2013-07-16 06:32:00,73.0,68.6,30.13,SE,135,0.0,0.0,86,0.00,CLR,,0.00,WeatherDisplay:10.37,2013-07-16 10:32:00,
2013-07-16 06:37:00,73.0,68.6,30.13,SE,135,0.0,0.0,86,0.00,CLR,,0.00,WeatherDisplay:10.37,2013-07-16 10:37:00,
2013-07-16 06:42:00,73.0,68.9,30.13,SE,135,0.0,0.0,87,0.00,CLR,,0.00,WeatherDisplay:10.37,2013-07-16 10:42:00,
2013-07-16 06:47:00,73.2,69.1,30.13,SE,135,0.0,0.0,87,0.00,CLR,,0.00,WeatherDisplay:10.37,2013-07-16 10:47:00,
2013-07-16 06:52:00,73.4,69.3,30.13,NE,45,0.0,0.0,87,0.00,CLR,,0.00,WeatherDisplay:10.37,2013-07-16 10:52:00,
2013-07-16 06:57:00,73.4,69.3,30.13,NE,45,0.0,0.0,87,0.00,CLR,,0.00,WeatherDisplay:10.37,2013-07-16 10:57:00,
2013-07-16 07:02:00,73.6,69.5,30.13,ENE,68,0.0,0.0,87,0.00,CLR,,0.00,WeatherDisplay:10.37,2013-07-16 11:02:00,
2013-07-16 07:07:00,73.8,69.6,30.14,ESE,112,0.0,0.0,87,0.00,CLR,,0.00,WeatherDisplay:10.37,2013-07-16 11:07:00,
2013-07-16 07:12:00,73.8,69.6,30.14,SE,135,0.0,0.0,87,0.00,CLR,,0.00,WeatherDisplay:10.37,2013-07-16 11:12:00,
2013-07-16 07:17:00,73.8,69.6,30.14,SE,135,0.0,0.0,87,0.00,CLR,,0.00,WeatherDisplay:10.37,2013-07-16 11:17:00,
2013-07-16 07:22:00,74.1,70.0,30.14,SE,135,0.0,0.0,87,0.00,CLR,,0.00,WeatherDisplay:10.37,2013-07-16 11:22:00,
2013-07-16 07:27:00,74.3,70.2,30.14,SE,135,0.0,0.0,87,0.00,CLR,,0.00,WeatherDisplay:10.37,2013-07-16 11:27:00,
2013-07-16 07:32:00,74.5,70.0,30.14,SE,135,0.0,0.0,86,0.00,CLR,,0.00,WeatherDisplay:10.37,2013-07-16 11:32:00,
2013-07-16 07:37:00,74.8,70.4,30.14,SE,135,0.0,0.0,86,0.00,CLR,,0.00,WeatherDisplay:10.37,2013-07-16 11:37:00,
2013-07-16 07:42:00,75.0,70.5,30.14,ENE,68,0.2,0.2,86,0.00,CLR,,0.00,WeatherDisplay:10.37,2013-07-16 11:42:00,
2013-07-16 07:47:00,75.0,70.2,30.15,ENE,68,0.0,0.0,85,0.00,CLR,,0.00,WeatherDisplay:10.37,2013-07-16 11:47:00,
2013-07-16 07:52:00,75.2,70.4,30.15,SE,135,0.0,0.0,85,0.00,CLR,,0.00,WeatherDisplay:10.37,2013-07-16 11:52:00,
2013-07-16 07:57:00,75.7,70.2,30.15,SE,135,0.0,0.0,83,0.00,CLR,,0.00,WeatherDisplay:10.37,2013-07-16 11:57:00,
2013-07-16 08:02:00,75.9,70.4,30.15,SE,135,0.0,0.0,83,0.00,CLR,,0.00,WeatherDisplay:10.37,2013-07-16 12:02:00,
2013-07-16 08:07:00,76.1,70.2,30.15,ENE,68,0.0,0.0,82,0.00,CLR,,0.00,WeatherDisplay:10.37,2013-07-16 12:07:00,
2013-07-16 08:12:00,76.3,70.0,30.15,NW,315,0.0,0.0,81,0.00,CLR,,0.00,WeatherDisplay:10.37,2013-07-16 12:12:00,
2013-07-16 08:17:00,76.6,70.0,30.15,East,90,1.1,1.1,80,0.00,CLR,,0.00,WeatherDisplay:10.37,2013-07-16 12:17:00,
2013-07-16 08:22:00,77.0,70.0,30.15,East,90,1.1,1.1,79,0.00,CLR,,0.00,WeatherDisplay:10.37,2013-07-16 12:22:00,
2013-07-16 08:27:00,77.5,70.5,30.15,WSW,248,0.0,0.0,79,0.00,CLR,,0.00,WeatherDisplay:10.37,2013-07-16 12:27:00,
2013-07-16 08:32:00,77.9,70.5,30.14,SW,225,0.0,0.0,78,0.00,CLR,,0.00,WeatherDisplay:10.37,2013-07-16 12:32:00,
2013-07-16 08:37:00,77.9,70.5,30.15,SSW,202,0.0,0.0,78,0.00,CLR,,0.00,WeatherDisplay:10.37,2013-07-16 12:37:00,
2013-07-16 08:42:00,78.1,70.7,30.14,ENE,68,0.2,0.2,78,0.00,CLR,,0.00,WeatherDisplay:10.37,2013-07-16 12:42:00,
2013-07-16 08:47:00,78.3,70.8,30.14,ESE,112,0.0,0.0,78,0.00,CLR,,0.00,WeatherDisplay:10.37,2013-07-16 12:47:00,
2013-07-16 08:52:00,78.4,70.6,30.14,East,90,0.5,0.5,77,0.00,CLR,,0.00,WeatherDisplay:10.37,2013-07-16 12:52:00,
2013-07-16 08:57:00,78.8,71.0,30.14,WNW,292,0.0,0.0,77,0.00,CLR,,0.00,WeatherDisplay:10.37,2013-07-16 12:57:00,
2013-07-16 09:02:00,79.0,70.4,30.14,ENE,68,2.2,2.2,75,0.00,CLR,,0.00,WeatherDisplay:10.37,2013-07-16 13:02:00,
2013-07-16 09:07:00,79.5,70.5,30.14,East,90,1.1,1.1,74,0.00,CLR,,0.00,WeatherDisplay:10.37,2013-07-16 13:07:00,
2013-07-16 09:12:00,79.9,70.8,30.14,SSE,158,1.1,1.1,74,0.00,CLR,,0.00,WeatherDisplay:10.37,2013-07-16 13:12:00,
2013-07-16 09:17:00,80.2,70.4,30.14,East,90,2.3,2.3,72,0.00,CLR,,0.00,WeatherDisplay:10.37,2013-07-16 13:17:00,
2013-07-16 09:22:00,80.8,70.5,30.13,East,90,2.3,2.3,71,0.00,CLR,,0.00,WeatherDisplay:10.37,2013-07-16 13:22:00,
2013-07-16 09:27:00,81.0,70.7,30.14,ESE,112,2.3,2.3,71,0.00,CLR,,0.00,WeatherDisplay:10.37,2013-07-16 13:27:00,
2013-07-16 09:32:00,81.3,70.6,30.13,East,90,1.1,1.1,70,0.00,CLR,,0.00,WeatherDisplay:10.37,2013-07-16 13:32:00,
2013-07-16 09:37:00,81.5,70.8,30.13,East,90,1.1,1.1,70,0.00,CLR,,0.00,WeatherDisplay:10.37,2013-07-16 13:37:00,
2013-07-16 09:42:00,81.7,70.9,30.13,WNW,292,2.3,2.3,70,0.00,CLR,,0.00,WeatherDisplay:10.37,2013-07-16 13:42:00,
2013-07-16 09:47:00,82.0,70.9,30.13,East,90,1.1,1.1,69,0.00,CLR,,0.00,WeatherDisplay:10.37,2013-07-16 13:47:00,
2013-07-16 09:52:00,82.4,71.2,30.13,West,270,1.1,1.1,69,0.00,CLR,,0.00,WeatherDisplay:10.37,2013-07-16 13:52:00,
2013-07-16 09:57:00,82.4,70.8,30.13,ENE,68,2.3,2.3,68,0.00,CLR,,0.00,WeatherDisplay:10.37,2013-07-16 13:57:00,
2013-07-16 10:02:00,82.6,70.9,30.13,East,90,1.4,1.4,68,0.00,CLR,,0.00,WeatherDisplay:10.37,2013-07-16 14:02:00,
2013-07-16 10:07:00,82.9,70.9,30.13,NE,45,1.1,1.1,67,0.00,CLR,,0.00,WeatherDisplay:10.37,2013-07-16 14:07:00,
2013-07-16 10:12:00,83.3,71.2,30.13,ENE,68,1.1,1.1,67,0.00,CLR,,0.00,WeatherDisplay:10.37,2013-07-16 14:12:00,
2013-07-16 10:17:00,83.5,70.0,30.13,ENE,68,2.4,2.4,64,0.00,CLR,,0.00,WeatherDisplay:10.37,2013-07-16 14:17:00,
2013-07-16 10:22:00,83.7,71.1,30.13,NNW,338,1.1,1.1,66,0.00,CLR,,0.00,WeatherDisplay:10.37,2013-07-16 14:22:00,
2013-07-16 10:27:00,83.8,70.8,30.13,WNW,292,2.3,2.3,65,0.00,CLR,,0.00,WeatherDisplay:10.37,2013-07-16 14:27:00,
2013-07-16 10:32:00,84.0,70.5,30.13,East,90,1.1,0.0,64,0.00,CLR,,0.00,WeatherDisplay:10.37,2013-07-16 14:32:00,
2013-07-16 10:37:00,84.2,71.2,30.13,East,90,1.8,1.8,65,0.00,CLR,,0.00,WeatherDisplay:10.37,2013-07-16 14:37:00,
2013-07-16 10:42:00,84.4,71.3,30.13,East,90,1.1,1.1,65,0.00,CLR,,0.00,WeatherDisplay:10.37,2013-07-16 14:42:00,
2013-07-16 10:47:00,84.6,71.0,30.13,ENE,68,1.1,0.0,64,0.00,CLR,,0.00,WeatherDisplay:10.37,2013-07-16 14:47:00,
2013-07-16 10:52:00,84.9,70.4,30.13,ESE,112,2.3,2.3,62,0.00,CLR,,0.00,WeatherDisplay:10.37,2013-07-16 14:52:00,
2013-07-16 10:57:00,85.1,71.1,30.13,ENE,68,1.1,1.1,63,0.00,CLR,,0.00,WeatherDisplay:10.37,2013-07-16 14:57:00,
2013-07-16 11:02:00,85.3,71.3,30.13,NE,45,1.1,1.1,63,0.00,CLR,,0.00,WeatherDisplay:10.37,2013-07-16 15:02:00,
2013-07-16 11:07:00,85.3,70.3,30.12,East,90,1.1,1.1,61,0.00,CLR,,0.00,WeatherDisplay:10.37,2013-07-16 15:07:00,
2013-07-16 11:12:00,85.6,70.6,30.12,ESE,112,2.3,2.3,61,0.00,CLR,,0.00,WeatherDisplay:10.37,2013-07-16 15:12:00,
2013-07-16 11:17:00,85.6,71.1,30.12,East,90,1.1,1.1,62,0.00,CLR,,0.00,WeatherDisplay:10.37,2013-07-16 15:17:00,
2013-07-16 11:22:00,86.0,71.0,30.12,ENE,68,3.5,3.5,61,0.00,CLR,,0.00,WeatherDisplay:10.37,2013-07-16 15:22:00,
2013-07-16 11:27:00,86.0,70.0,30.12,NW,315,2.3,2.3,59,0.00,CLR,,0.00,WeatherDisplay:10.37,2013-07-16 15:27:00,
2013-07-16 11:32:00,86.2,70.2,30.12,ENE,68,1.1,1.1,59,0.00,CLR,,0.00,WeatherDisplay:10.37,2013-07-16 15:32:00,
2013-07-16 11:37:00,86.4,69.8,30.12,NE,45,1.1,1.1,58,0.00,CLR,,0.00,WeatherDisplay:10.37,2013-07-16 15:37:00,
2013-07-16 11:42:00,86.5,69.5,30.12,East,90,1.1,2.4,57,0.00,CLR,,0.00,WeatherDisplay:10.37,2013-07-16 15:42:00,
2013-07-16 11:47:00,86.7,70.2,30.12,ENE,68,2.3,2.3,58,0.00,CLR,,0.00,WeatherDisplay:10.37,2013-07-16 15:47:00,
2013-07-16 11:52:00,86.9,69.8,30.11,NE,45,2.3,2.3,57,0.00,CLR,,0.00,WeatherDisplay:10.37,2013-07-16 15:52:00,
2013-07-16 11:57:00,87.1,69.0,30.12,East,90,2.4,2.4,55,0.00,CLR,,0.00,WeatherDisplay:10.37,2013-07-16 15:57:00,
2013-07-16 12:02:00,87.4,69.3,30.12,East,90,2.3,2.3,55,0.00,CLR,,0.00,WeatherDisplay:10.37,2013-07-16 16:02:00,
2013-07-16 12:07:00,87.4,69.3,30.12,NE,45,2.3,2.3,55,0.00,CLR,,0.00,WeatherDisplay:10.37,2013-07-16 16:07:00,
2013-07-16 12:12:00,87.4,69.3,30.12,NE,45,2.3,2.3,55,0.00,CLR,,0.00,WeatherDisplay:10.37,2013-07-16 16:12:00,
2013-07-16 12:17:00,87.6,69.5,30.11,ENE,68,2.3,2.3,55,0.00,CLR,,0.00,WeatherDisplay:10.37,2013-07-16 16:17:00,
2013-07-16 12:22:00,88.0,69.8,30.11,ENE,68,1.1,1.1,55,0.00,CLR,,0.00,WeatherDisplay:10.37,2013-07-16 16:22:00,
2013-07-16 12:27:00,88.0,69.3,30.11,East,90,3.5,3.5,54,0.00,CLR,,0.00,WeatherDisplay:10.37,2013-07-16 16:27:00,
2013-07-16 12:32:00,88.2,68.3,30.11,ESE,112,2.4,2.4,52,0.00,CLR,,0.00,WeatherDisplay:10.37,2013-07-16 16:32:00,
2013-07-16 12:37:00,88.2,68.9,30.11,East,90,2.3,2.3,53,0.00,CLR,,0.00,WeatherDisplay:10.37,2013-07-16 16:37:00,
2013-07-16 12:42:00,88.2,68.9,30.11,NW,315,2.3,2.3,53,0.00,CLR,,0.00,WeatherDisplay:10.37,2013-07-16 16:42:00,
2013-07-16 12:47:00,88.5,68.1,30.11,SE,135,3.5,3.5,51,0.00,CLR,,0.00,WeatherDisplay:10.37,2013-07-16 16:47:00,
2013-07-16 12:52:00,88.7,69.4,30.11,NNW,338,2.3,2.3,53,0.00,CLR,,0.00,WeatherDisplay:10.37,2013-07-16 16:52:00,
2013-07-16 12:57:00,88.9,69.0,30.10,ESE,112,2.3,2.3,52,0.00,CLR,,0.00,WeatherDisplay:10.37,2013-07-16 16:57:00,
2013-07-16 13:02:00,89.1,68.0,30.11,East,90,3.3,3.3,50,0.00,CLR,,0.00,WeatherDisplay:10.37,2013-07-16 17:02:00,
2013-07-16 13:07:00,89.2,68.2,30.10,East,90,2.3,2.3,50,0.00,CLR,,0.00,WeatherDisplay:10.37,2013-07-16 17:07:00,
2013-07-16 13:12:00,89.4,68.3,30.10,SE,135,2.3,2.3,50,0.00,CLR,,0.00,WeatherDisplay:10.37,2013-07-16 17:12:00,
2013-07-16 13:17:00,89.8,68.1,30.10,ESE,112,4.6,4.6,49,0.00,CLR,,0.00,WeatherDisplay:10.37,2013-07-16 17:17:00,
2013-07-16 13:22:00,90.0,68.2,30.10,East,90,1.4,1.4,49,0.00,CLR,,0.00,WeatherDisplay:10.37,2013-07-16 17:22:00,
2013-07-16 13:27:00,90.1,69.0,30.10,East,90,1.1,1.1,50,0.00,CLR,,0.00,WeatherDisplay:10.37,2013-07-16 17:27:00,
2013-07-16 13:32:00,90.1,68.4,30.10,ENE,68,2.3,2.3,49,0.00,CLR,,0.00,WeatherDisplay:10.37,2013-07-16 17:32:00,
2013-07-16 13:37:00,90.3,68.6,30.10,NE,45,2.3,2.3,49,0.00,CLR,,0.00,WeatherDisplay:10.37,2013-07-16 17:37:00,
2013-07-16 13:42:00,90.5,66.3,30.10,East,90,3.5,3.5,45,0.00,CLR,,0.00,WeatherDisplay:10.37,2013-07-16 17:42:00,
2013-07-16 13:47:00,90.3,68.0,30.09,NW,315,1.1,1.1,48,0.00,CLR,,0.00,WeatherDisplay:10.37,2013-07-16 17:47:00,
2013-07-16 13:52:00,90.7,67.7,30.09,ENE,68,2.4,2.4,47,0.00,CLR,,0.00,WeatherDisplay:10.37,2013-07-16 17:52:00,
2013-07-16 13:57:00,90.9,69.1,30.09,WNW,292,2.3,2.3,49,0.00,CLR,,0.00,WeatherDisplay:10.37,2013-07-16 17:57:00,
2013-07-16 14:02:00,91.4,69.6,30.09,East,90,2.3,2.3,49,0.00,CLR,,0.00,WeatherDisplay:10.37,2013-07-16 18:02:00,
2013-07-16 14:07:00,91.8,68.0,30.09,East,90,2.3,2.3,46,0.00,CLR,,0.00,WeatherDisplay:10.37,2013-07-16 18:07:00,
2013-07-16 14:12:00,92.1,69.0,30.09,ENE,68,2.3,2.3,47,0.00,CLR,,0.00,WeatherDisplay:10.37,2013-07-16 18:12:00,
2013-07-16 14:17:00,91.8,68.7,30.09,NE,45,2.3,2.3,47,0.00,CLR,,0.00,WeatherDisplay:10.37,2013-07-16 18:17:00,
2013-07-16 14:22:00,91.9,69.4,30.09,NNW,338,2.3,2.3,48,0.00,CLR,,0.00,WeatherDisplay:10.37,2013-07-16 18:22:00,
2013-07-16 14:27:00,92.5,69.3,30.09,WNW,292,2.3,2.3,47,0.00,CLR,,0.00,WeatherDisplay:10.37,2013-07-16 18:27:00,
2013-07-16 14:32:00,92.5,68.7,30.09,NNW,338,2.3,2.3,46,0.00,CLR,,0.00,WeatherDisplay:10.37,2013-07-16 18:32:00,
2013-07-16 14:37:00,92.5,68.7,30.09,East,90,2.3,2.3,46,0.00,CLR,,0.00,WeatherDisplay:10.37,2013-07-16 18:37:00,
2013-07-16 14:42:00,92.8,69.0,30.09,East,90,2.4,2.4,46,0.00,CLR,,0.00,WeatherDisplay:10.37,2013-07-16 18:42:00,
2013-07-16 14:47:00,92.7,68.2,30.09,NW,315,2.3,2.3,45,0.00,CLR,,0.00,WeatherDisplay:10.37,2013-07-16 18:47:00,
2013-07-16 14:52:00,92.5,68.7,30.09,ESE,112,2.4,2.4,46,0.00,CLR,,0.00,WeatherDisplay:10.37,2013-07-16 18:52:00,
2013-07-16 14:57:00,92.5,68.7,30.08,SE,135,1.1,1.1,46,0.00,CLR,,0.00,WeatherDisplay:10.37,2013-07-16 18:57:00,
2013-07-16 15:02:00,92.7,66.9,30.09,ENE,68,3.5,3.5,43,0.00,CLR,,0.00,WeatherDisplay:10.37,2013-07-16 19:02:00,
2013-07-16 15:07:00,92.5,68.0,30.08,East,90,2.3,2.3,45,0.00,CLR,,0.00,WeatherDisplay:10.37,2013-07-16 19:07:00,
2013-07-16 15:12:00,92.5,68.0,30.08,NE,45,1.1,1.1,45,0.00,CLR,,0.00,WeatherDisplay:10.37,2013-07-16 19:12:00,
2013-07-16 15:17:00,92.8,69.0,30.08,ENE,68,2.3,2.3,46,0.00,CLR,,0.00,WeatherDisplay:10.37,2013-07-16 19:17:00,
2013-07-16 15:22:00,92.8,67.7,30.08,East,90,4.6,4.6,44,0.00,CLR,,0.00,WeatherDisplay:10.37,2013-07-16 19:22:00,
2013-07-16 15:27:00,92.5,68.0,30.08,ENE,68,3.5,3.5,45,0.00,CLR,,0.00,WeatherDisplay:10.37,2013-07-16 19:27:00,
2013-07-16 15:32:00,92.3,67.2,30.08,ENE,68,2.3,2.3,44,0.00,CLR,,0.00,WeatherDisplay:10.37,2013-07-16 19:32:00,
2013-07-16 15:37:00,92.3,68.5,30.08,ESE,112,2.3,2.3,46,0.00,CLR,,0.00,WeatherDisplay:10.37,2013-07-16 19:37:00,
2013-07-16 15:42:00,92.8,69.0,30.08,ENE,68,2.3,2.3,46,0.00,CLR,,0.00,WeatherDisplay:10.37,2013-07-16 19:42:00,
2013-07-16 15:47:00,92.7,68.2,30.08,East,90,2.3,2.3,45,0.00,CLR,,0.00,WeatherDisplay:10.37,2013-07-16 19:47:00,
2013-07-16 15:52:00,92.7,67.6,30.08,East,90,2.3,2.3,44,0.00,CLR,,0.00,WeatherDisplay:10.37,2013-07-16 19:52:00,
2013-07-16 15:57:00,92.5,68.0,30.08,ENE,68,2.3,2.3,45,0.00,CLR,,0.00,WeatherDisplay:10.37,2013-07-16 19:57:00,
2013-07-16 16:02:00,91.9,67.6,30.08,ENE,68,2.3,2.3,45,0.00,CLR,,0.00,WeatherDisplay:10.37,2013-07-16 20:02:00,
2013-07-16 16:07:00,91.8,66.1,30.08,ESE,112,2.3,2.3,43,0.00,CLR,,0.00,WeatherDisplay:10.37,2013-07-16 20:07:00,
2013-07-16 16:12:00,92.1,67.1,30.08,NE,45,2.9,2.9,44,0.00,CLR,,0.00,WeatherDisplay:10.37,2013-07-16 20:12:00,
2013-07-16 16:17:00,92.3,68.5,30.08,ESE,112,2.3,2.3,46,0.00,CLR,,0.00,WeatherDisplay:10.37,2013-07-16 20:17:00,
2013-07-16 16:22:00,92.5,67.4,30.08,East,90,3.5,3.5,44,0.00,CLR,,0.00,WeatherDisplay:10.37,2013-07-16 20:22:00,
2013-07-16 16:27:00,92.7,68.9,30.08,WSW,248,1.1,1.1,46,0.00,CLR,,0.00,WeatherDisplay:10.37,2013-07-16 20:27:00,
2013-07-16 16:32:00,92.8,69.0,30.08,NE,45,3.5,3.5,46,0.00,CLR,,0.00,WeatherDisplay:10.37,2013-07-16 20:32:00,
2013-07-16 16:37:00,92.5,67.4,30.08,ENE,68,2.3,2.3,44,0.00,CLR,,0.00,WeatherDisplay:10.37,2013-07-16 20:37:00,
2013-07-16 16:42:00,92.5,68.0,30.08,ENE,68,3.5,3.5,45,0.00,CLR,,0.00,WeatherDisplay:10.37,2013-07-16 20:42:00,
2013-07-16 16:47:00,92.5,68.0,30.08,ENE,68,3.5,3.5,45,0.00,CLR,,0.00,WeatherDisplay:10.37,2013-07-16 20:47:00,
2013-07-16 16:52:00,92.1,67.1,30.08,NE,45,2.3,2.3,44,0.00,CLR,,0.00,WeatherDisplay:10.37,2013-07-16 20:52:00,
2013-07-16 16:57:00,92.1,66.4,30.08,East,90,3.5,3.5,43,0.00,CLR,,0.00,WeatherDisplay:10.37,2013-07-16 20:57:00,
2013-07-16 17:02:00,92.1,67.1,30.07,East,90,3.5,3.5,44,0.00,CLR,,0.00,WeatherDisplay:10.37,2013-07-16 21:02:00,
2013-07-16 17:07:00,92.3,67.9,30.07,SE,135,2.9,2.9,45,0.00,CLR,,0.00,WeatherDisplay:10.37,2013-07-16 21:07:00,
2013-07-16 17:12:00,92.7,68.9,30.07,ENE,68,2.3,2.3,46,0.00,CLR,,0.00,WeatherDisplay:10.37,2013-07-16 21:12:00,
2013-07-16 17:17:00,92.8,68.4,30.07,NE,45,2.3,2.3,45,0.00,CLR,,0.00,WeatherDisplay:10.37,2013-07-16 21:17:00,
2013-07-16 17:22:00,92.8,67.7,30.07,ENE,68,3.5,3.5,44,0.00,CLR,,0.00,WeatherDisplay:10.37,2013-07-16 21:22:00,
2013-07-16 17:27:00,92.3,67.2,30.07,East,90,2.4,2.4,44,0.00,CLR,,0.00,WeatherDisplay:10.37,2013-07-16 21:27:00,
2013-07-16 17:32:00,92.1,67.7,30.07,East,90,2.3,2.3,45,0.00,CLR,,0.00,WeatherDisplay:10.37,2013-07-16 21:32:00,
2013-07-16 17:37:00,92.1,68.4,30.07,NW,315,1.1,1.4,46,0.00,CLR,,0.00,WeatherDisplay:10.37,2013-07-16 21:37:00,
2013-07-16 17:42:00,92.1,68.4,30.07,NNW,338,1.1,1.1,46,0.00,CLR,,0.00,WeatherDisplay:10.37,2013-07-16 21:42:00,
2013-07-16 17:47:00,91.9,67.6,30.07,ENE,68,3.5,3.5,45,0.00,CLR,,0.00,WeatherDisplay:10.37,2013-07-16 21:47:00,
2013-07-16 17:52:00,91.4,67.1,30.07,East,90,1.8,1.8,45,0.00,CLR,,0.00,WeatherDisplay:10.37,2013-07-16 21:52:00,
2013-07-16 17:57:00,90.9,67.2,30.07,ESE,112,2.3,2.3,46,0.00,CLR,,0.00,WeatherDisplay:10.37,2013-07-16 21:57:00,
2013-07-16 18:02:00,90.5,66.9,30.07,NE,45,1.1,1.8,46,0.00,CLR,,0.00,WeatherDisplay:10.37,2013-07-16 22:02:00,
2013-07-16 18:07:00,90.7,67.7,30.07,NW,315,2.3,2.3,47,0.00,CLR,,0.00,WeatherDisplay:10.37,2013-07-16 22:07:00,
2013-07-16 18:12:00,90.9,67.8,30.07,NE,45,1.1,1.1,47,0.00,CLR,,0.00,WeatherDisplay:10.37,2013-07-16 22:12:00,
2013-07-16 18:17:00,90.7,67.7,30.07,NE,45,1.1,1.1,47,0.00,CLR,,0.00,WeatherDisplay:10.37,2013-07-16 22:17:00,
2013-07-16 18:22:00,90.9,67.8,30.07,East,90,2.2,2.2,47,0.00,CLR,,0.00,WeatherDisplay:10.37,2013-07-16 22:22:00,
2013-07-16 18:27:00,90.9,67.8,30.06,East,90,2.3,2.3,47,0.00,CLR,,0.00,WeatherDisplay:10.37,2013-07-16 22:27:00,
2013-07-16 18:32:00,90.9,67.8,30.06,East,90,1.1,1.1,47,0.00,CLR,,0.00,WeatherDisplay:10.37,2013-07-16 22:32:00,
2013-07-16 18:37:00,90.7,67.7,30.06,ESE,112,1.1,1.1,47,0.00,CLR,,0.00,WeatherDisplay:10.37,2013-07-16 22:37:00,
2013-07-16 18:42:00,90.7,67.7,30.06,ESE,112,1.1,1.1,47,0.00,CLR,,0.00,WeatherDisplay:10.37,2013-07-16 22:42:00,
2013-07-16 18:47:00,90.5,67.5,30.06,East,90,1.1,1.1,47,0.00,CLR,,0.00,WeatherDisplay:10.37,2013-07-16 22:47:00,
2013-07-16 18:52:00,90.5,67.5,30.06,ESE,112,0.5,0.5,47,0.00,CLR,,0.00,WeatherDisplay:10.37,2013-07-16 22:52:00,
2013-07-16 18:57:00,90.5,67.5,30.06,NNE,22,1.1,0.0,47,0.00,CLR,,0.00,WeatherDisplay:10.37,2013-07-16 22:57:00,
2013-07-16 19:02:00,90.3,68.0,30.07,North,0,0.2,0.2,48,0.00,CLR,,0.00,WeatherDisplay:10.37,2013-07-16 23:02:00,
2013-07-16 19:07:00,90.1,67.8,30.07,ENE,68,1.1,1.1,48,0.00,CLR,,0.00,WeatherDisplay:10.37,2013-07-16 23:07:00,
2013-07-16 19:12:00,90.0,67.6,30.07,ENE,68,0.9,0.9,48,0.00,CLR,,0.00,WeatherDisplay:10.37,2013-07-16 23:12:00,
2013-07-16 19:17:00,89.8,68.1,30.07,ENE,68,1.1,1.1,49,0.00,CLR,,0.00,WeatherDisplay:10.37,2013-07-16 23:17:00,
2013-07-16 19:22:00,89.8,68.1,30.07,East,90,1.1,1.1,49,0.00,CLR,,0.00,WeatherDisplay:10.37,2013-07-16 23:22:00,
2013-07-16 19:27:00,89.6,68.5,30.07,ENE,68,0.5,0.5,50,0.00,CLR,,0.00,WeatherDisplay:10.37,2013-07-16 23:27:00,
2013-07-16 19:32:00,89.4,68.9,30.08,ENE,68,1.1,1.1,51,0.00,CLR,,0.00,WeatherDisplay:10.37,2013-07-16 23:32:00,
2013-07-16 19:37:00,88.5,69.2,30.08,ENE,68,1.1,1.1,53,0.00,CLR,,0.00,WeatherDisplay:10.37,2013-07-16 23:37:00,
2013-07-16 19:42:00,87.4,68.8,30.08,ENE,68,0.0,0.0,54,0.00,CLR,,0.00,WeatherDisplay:10.37,2013-07-16 23:42:00,
2013-07-16 19:47:00,86.9,69.3,30.08,ENE,68,1.1,1.1,56,0.00,CLR,,0.00,WeatherDisplay:10.37,2013-07-16 23:47:00,
2013-07-16 19:52:00,86.5,69.0,30.08,ENE,68,1.1,1.1,56,0.00,CLR,,0.00,WeatherDisplay:10.37,2013-07-16 23:52:00,
2013-07-16 19:57:00,86.4,68.8,30.08,ENE,68,0.0,0.0,56,0.00,CLR,,0.00,WeatherDisplay:10.37,2013-07-16 23:57:00,
2013-07-16 20:02:00,86.4,68.8,30.08,ENE,68,0.0,0.0,56,0.00,CLR,,0.00,WeatherDisplay:10.37,2013-07-17 00:02:00,
2013-07-16 20:07:00,86.2,68.6,30.08,ENE,68,0.5,0.5,56,0.00,CLR,,0.00,WeatherDisplay:10.37,2013-07-17 00:07:00,
2013-07-16 20:12:00,86.0,68.5,30.08,ENE,68,0.0,0.5,56,0.00,CLR,,0.00,WeatherDisplay:10.37,2013-07-17 00:12:00,
2013-07-16 20:17:00,85.8,68.3,30.08,ENE,68,0.0,0.0,56,0.00,CLR,,0.00,WeatherDisplay:10.37,2013-07-17 00:17:00,
2013-07-16 20:22:00,85.6,68.7,30.08,ENE,68,0.0,0.0,57,0.00,CLR,,0.00,WeatherDisplay:10.37,2013-07-17 00:22:00,
2013-07-16 20:27:00,85.3,68.8,30.08,ENE,68,0.0,0.0,58,0.00,CLR,,0.00,WeatherDisplay:10.37,2013-07-17 00:27:00,
2013-07-16 20:32:00,85.1,68.2,30.08,ENE,68,0.0,0.0,57,0.00,CLR,,0.00,WeatherDisplay:10.37,2013-07-17 00:32:00,
2013-07-16 20:37:00,84.9,68.0,30.08,ENE,68,0.0,0.0,57,0.00,CLR,,0.00,WeatherDisplay:10.37,2013-07-17 00:37:00,
2013-07-16 20:42:00,84.6,68.2,30.08,ENE,68,0.0,0.0,58,0.00,CLR,,0.00,WeatherDisplay:10.37,2013-07-17 00:42:00,
2013-07-16 20:47:00,84.4,68.0,30.08,ENE,68,0.0,0.0,58,0.00,CLR,,0.00,WeatherDisplay:10.37,2013-07-17 00:47:00,
2013-07-16 20:52:00,84.2,67.8,30.08,ENE,68,0.0,0.0,58,0.00,CLR,,0.00,WeatherDisplay:10.37,2013-07-17 00:52:00,
2013-07-16 20:57:00,83.8,68.0,30.08,ENE,68,0.0,0.0,59,0.00,CLR,,0.00,WeatherDisplay:10.37,2013-07-17 00:57:00,
2013-07-16 21:02:00,83.7,67.8,30.08,ENE,68,0.0,0.0,59,0.00,CLR,,0.00,WeatherDisplay:10.37,2013-07-17 01:02:00,
2013-07-16 21:07:00,83.3,67.0,30.08,ENE,68,0.0,0.0,58,0.00,CLR,,0.00,WeatherDisplay:10.37,2013-07-17 01:07:00,
2013-07-16 21:12:00,83.1,67.3,30.08,ENE,68,0.0,0.0,59,0.00,CLR,,0.00,WeatherDisplay:10.37,2013-07-17 01:12:00,
2013-07-16 21:17:00,82.9,67.1,30.09,ENE,68,0.0,0.0,59,0.00,CLR,,0.00,WeatherDisplay:10.37,2013-07-17 01:17:00,
2013-07-16 21:22:00,82.8,67.0,30.09,ENE,68,0.0,0.0,59,0.00,CLR,,0.00,WeatherDisplay:10.37,2013-07-17 01:22:00,
2013-07-16 21:27:00,82.6,67.3,30.09,ENE,68,0.0,0.0,60,0.00,CLR,,0.00,WeatherDisplay:10.37,2013-07-17 01:27:00,
2013-07-16 21:32:00,82.4,67.1,30.09,ENE,68,0.0,0.0,60,0.00,CLR,,0.00,WeatherDisplay:10.37,2013-07-17 01:32:00,
2013-07-16 21:37:00,82.2,66.9,30.09,ENE,68,0.0,0.0,60,0.00,CLR,,0.00,WeatherDisplay:10.37,2013-07-17 01:37:00,
2013-07-16 21:42:00,82.0,66.8,30.09,ENE,68,0.0,0.0,60,0.00,CLR,,0.00,WeatherDisplay:10.37,2013-07-17 01:42:00,
2013-07-16 21:47:00,81.9,67.1,30.09,ENE,68,0.0,0.0,61,0.00,CLR,,0.00,WeatherDisplay:10.37,2013-07-17 01:47:00,
2013-07-16 21:52:00,81.7,66.9,30.10,ENE,68,0.0,0.0,61,0.00,CLR,,0.00,WeatherDisplay:10.37,2013-07-17 01:52:00,
2013-07-16 21:57:00,81.7,67.4,30.10,ENE,68,0.0,0.0,62,0.00,CLR,,0.00,WeatherDisplay:10.37,2013-07-17 01:57:00,
2013-07-16 22:02:00,81.3,67.5,30.10,ENE,68,0.0,0.0,63,0.00,CLR,,0.00,WeatherDisplay:10.37,2013-07-17 02:02:00,
2013-07-16 22:07:00,81.3,67.5,30.10,ENE,68,0.0,0.0,63,0.00,CLR,,0.00,WeatherDisplay:10.37,2013-07-17 02:07:00,
2013-07-16 22:12:00,81.1,67.8,30.10,ENE,68,0.0,0.0,64,0.00,CLR,,0.00,WeatherDisplay:10.37,2013-07-17 02:12:00,
2013-07-16 22:17:00,81.0,67.6,30.10,ENE,68,0.0,0.0,64,0.00,CLR,,0.00,WeatherDisplay:10.37,2013-07-17 02:17:00,
2013-07-16 22:22:00,80.8,67.9,30.10,ENE,68,0.0,0.0,65,0.00,CLR,,0.00,WeatherDisplay:10.37,2013-07-17 02:22:00,
2013-07-16 22:27:00,80.8,67.9,30.10,ENE,68,0.0,0.0,65,0.00,CLR,,0.00,WeatherDisplay:10.37,2013-07-17 02:27:00,
2013-07-16 22:32:00,80.6,67.7,30.11,ENE,68,0.0,0.0,65,0.00,CLR,,0.00,WeatherDisplay:10.37,2013-07-17 02:32:00,
2013-07-16 22:37:00,80.6,68.2,30.10,ENE,68,0.0,0.0,66,0.00,CLR,,0.00,WeatherDisplay:10.37,2013-07-17 02:37:00,
2013-07-16 22:42:00,80.4,68.0,30.11,ENE,68,0.0,0.0,66,0.00,CLR,,0.00,WeatherDisplay:10.37,2013-07-17 02:42:00,
2013-07-16 22:47:00,80.2,67.8,30.11,ENE,68,0.0,0.0,66,0.00,CLR,,0.00,WeatherDisplay:10.37,2013-07-17 02:47:00,
2013-07-16 22:52:00,80.2,67.8,30.11,ENE,68,0.0,0.0,66,0.00,CLR,,0.00,WeatherDisplay:10.37,2013-07-17 02:52:00,
2013-07-16 22:57:00,80.2,67.8,30.11,ENE,68,0.0,0.0,66,0.00,CLR,,0.00,WeatherDisplay:10.37,2013-07-17 02:57:00,
2013-07-16 23:02:00,80.2,68.3,30.11,ENE,68,0.0,0.0,67,0.00,CLR,,0.00,WeatherDisplay:10.37,2013-07-17 03:02:00,
2013-07-16 23:07:00,80.1,68.1,30.11,ENE,68,0.0,0.0,67,0.00,CLR,,0.00,WeatherDisplay:10.37,2013-07-17 03:07:00,
2013-07-16 23:12:00,79.9,67.9,30.11,ENE,68,0.0,0.0,67,0.00,CLR,,0.00,WeatherDisplay:10.37,2013-07-17 03:12:00,
2013-07-16 23:17:00,79.9,67.9,30.11,ENE,68,0.0,0.0,67,0.00,CLR,,0.00,WeatherDisplay:10.37,2013-07-17 03:17:00,
2013-07-16 23:22:00,79.9,68.4,30.11,ENE,68,0.0,0.0,68,0.00,CLR,,0.00,WeatherDisplay:10.37,2013-07-17 03:22:00,
2013-07-16 23:27:00,79.7,68.2,30.11,ENE,68,0.0,0.0,68,0.00,CLR,,0.00,WeatherDisplay:10.37,2013-07-17 03:27:00,
2013-07-16 23:32:00,79.5,68.0,30.11,ENE,68,0.0,0.0,68,0.00,CLR,,0.00,WeatherDisplay:10.37,2013-07-17 03:32:00,
2013-07-16 23:37:00,79.5,68.0,30.11,ENE,68,0.0,0.0,68,0.00,CLR,,0.00,WeatherDisplay:10.37,2013-07-17 03:37:00,
2013-07-16 23:42:00,79.3,67.9,30.10,ENE,68,0.0,0.0,68,0.00,CLR,,0.00,WeatherDisplay:10.37,2013-07-17 03:42:00,
2013-07-16 23:47:00,79.2,68.1,30.10,ENE,68,0.0,0.0,69,0.00,CLR,,0.00,WeatherDisplay:10.37,2013-07-17 03:47:00,
2013-07-16 23:52:00,79.2,68.1,30.10,ENE,68,0.0,0.0,69,0.00,CLR,,0.00,WeatherDisplay:10.37,2013-07-17 03:52:00,
2013-07-16 23:57:00,79.0,67.9,30.10,ENE,68,0.0,0.0,69,0.00,CLR,,0.00,WeatherDisplay:10.37,2013-07-17 03:57:00,